Location: Observatoire
(46.1952°N, 5.3391°E)
Time: 21:08:38
(UTC+02:00)

DOVE 4 - Visible Passes

Search period start: 22 April 2024 00:00
Search period end: 02 May 2024 00:00
Orbit: 580 x 782 km, 97.7° (Epoch: 22 April)

Date Brightness Start Highest point End Pass type
(mag) Time Alt. Az. Time Alt. Az. Time Alt. Az.
22 Apr ? 01:01:31 10° NW 01:03:19 12° WNW 01:04:32 11° WNW visible
22 Apr ? 22:21:50 10° NE 22:24:21 19° E 22:24:21 19° E visible
22 Apr ? 23:58:29 10° N 00:02:35 44° WNW 00:02:48 44° W visible
23 Apr ? 22:57:11 10° NNE 23:01:03 43° E 23:01:03 43° E visible
24 Apr ? 00:35:16 10° NNW 00:38:30 21° WNW 00:39:30 19° W visible
24 Apr ? 21:58:13 10° ENE 21:59:18 11° E 21:59:18 11° E visible
24 Apr ? 23:33:11 10° N 23:37:32 79° WNW 23:37:45 76° WSW visible
25 Apr ? 22:32:26 10° NE 22:35:59 26° E 22:35:59 26° E visible
26 Apr ? 00:09:34 10° N 00:13:33 35° WNW 00:14:25 32° W visible
26 Apr ? 23:08:01 10° NNE 23:12:23 59° E 23:12:39 58° ESE visible
27 Apr ? 00:46:32 10° NNW 00:49:23 17° WNW 00:51:06 14° W visible
27 Apr ? 22:08:05 10° NE 22:10:46 15° E 22:10:51 15° E visible
27 Apr ? 23:44:06 10° N 23:48:28 61° WNW 23:49:18 51° WSW visible
28 Apr ? 22:43:01 10° NNE 22:47:07 34° E 22:47:30 33° ESE visible
29 Apr ? 00:20:35 10° N 00:24:24 28° WNW 00:25:55 23° W visible
29 Apr ? 23:18:46 10° NNE 23:23:16 77° ESE 23:24:07 58° S visible
30 Apr ? 00:57:47 10° NNW 01:00:07 14° WNW 01:02:30 10° W visible
30 Apr ? 22:18:19 10° NE 22:21:43 20° E 22:22:17 20° ESE visible
30 Apr ? 23:54:56 10° N 23:59:16 48° WNW 00:00:43 35° WSW visible
01 May ? 22:53:35 10° NNE 22:57:57 44° E 22:58:53 39° SE visible
